TimeEST,TemperatureF,Dew PointF,Humidity,Sea Level PressureIn,VisibilityMPH,Wind Direction,Wind SpeedMPH,Gust SpeedMPH,PrecipitationIn,Events,Conditions,WindDirDegrees,DateUTC
12:53 AM,48.0,45.0,89,30.18,10.0,Calm,Calm,-,N/A,,Clear,0,2013-03-05 05:53:00
2:53 AM,46.9,43.0,86,30.15,10.0,Calm,Calm,-,N/A,,Clear,0,2013-03-05 07:53:00
3:53 AM,46.9,42.1,83,30.15,10.0,Calm,Calm,-,N/A,,Clear,0,2013-03-05 08:53:00
4:53 AM,46.0,41.0,83,30.14,10.0,SE,4.6,-,N/A,,Clear,130,2013-03-05 09:53:00
5:53 AM,46.0,41.0,83,30.17,10.0,Calm,Calm,-,N/A,,Clear,0,2013-03-05 10:53:00
6:53 AM,46.0,41.0,83,30.17,10.0,Calm,Calm,-,N/A,,Clear,0,2013-03-05 11:53:00
8:53 AM,60.1,48.0,64,30.19,10.0,SSE,3.5,-,N/A,,Clear,150,2013-03-05 13:53:00
9:53 AM,66.9,48.0,51,30.18,10.0,South,8.1,-,N/A,,Clear,170,2013-03-05 14:53:00
10:53 AM,71.1,51.1,49,30.19,10.0,South,10.4,16.1,N/A,,Clear,190,2013-03-05 15:53:00
11:53 AM,72.0,52.0,49,30.18,10.0,South,9.2,-,N/A,,Clear,190,2013-03-05 16:53:00
12:53 PM,73.9,52.0,46,30.15,10.0,SW,10.4,19.6,N/A,,Clear,230,2013-03-05 17:53:00
1:53 PM,73.0,51.1,46,30.12,10.0,SSW,10.4,16.1,N/A,,Clear,210,2013-03-05 18:53:00
2:53 PM,73.9,53.1,48,30.11,10.0,SSW,9.2,-,N/A,,Clear,210,2013-03-05 19:53:00
3:53 PM,73.0,54.0,51,30.12,10.0,SW,9.2,-,N/A,,Clear,220,2013-03-05 20:53:00
4:53 PM,72.0,54.0,53,30.12,10.0,WSW,9.2,-,N/A,,Clear,240,2013-03-05 21:53:00
5:53 PM,69.1,55.9,63,30.14,10.0,West,9.2,-,N/A,,Clear,270,2013-03-05 22:53:00
6:53 PM,64.9,55.9,73,30.13,10.0,WSW,5.8,-,N/A,,Clear,240,2013-03-05 23:53:00
7:53 PM,64.0,57.0,78,30.12,10.0,SSW,3.5,-,N/A,,Clear,200,2013-03-06 00:53:00
8:53 PM,62.1,57.0,84,30.12,10.0,Calm,Calm,-,N/A,,Clear,0,2013-03-06 01:53:00
9:53 PM,61.0,57.0,87,30.13,10.0,Calm,Calm,-,N/A,,Clear,0,2013-03-06 02:53:00
10:53 PM,61.0,57.0,87,30.12,10.0,SSW,3.5,-,N/A,,Clear,200,2013-03-06 03:53:00
11:53 PM,61.0,57.9,90,30.09,10.0,SSW,5.8,-,N/A,,Clear,200,2013-03-06 04:53:00